,,PA_Meas_PMT16A,,PR_Meas_QMR101_102,,RH_Meas_QMH101,,SR_Meas_QMS101,,TA_Meas_QMH101,,GenWind,,GenWind,
time,status,PA,status,PR,status,RH,status,SR,status,TA,status,DirAvg,status,SpdAvg,
2016-07-29, 16:37:04,VALID,918.662,VALID,0,INVALID,109.808,VALID,355.415,VALID,22.5459,VALID,338,VALID,0,
2016-07-29, 16:38:04,VALID,918.653,VALID,0,VALID,103.778,VALID,343.812,VALID,22.6843,VALID,32,VALID,0,
2016-07-29, 16:39:04,VALID,918.688,VALID,0,VALID,93.8747,VALID,333.82,VALID,22.7801,VALID,33,VALID,0,
2016-07-29, 16:40:04,VALID,918.699,VALID,0,VALID,86.9984,VALID,323.72,VALID,22.9167,VALID,11,VALID,0,
2016-07-29, 16:41:04,VALID,918.708,VALID,0,VALID,87.5702,VALID,317.596,VALID,23.0533,VALID,1,VALID,0,
2016-07-29, 16:42:04,VALID,918.693,VALID,0,VALID,86.6477,VALID,314.158,VALID,23.1722,VALID,8,VALID,0,
2016-07-29, 16:43:04,VALID,918.738,VALID,0,VALID,93.3411,VALID,312.439,VALID,23.1704,VALID,318,VALID,0,
2016-07-29, 16:44:04,VALID,918.719,VALID,0,VALID,104,VALID,312.117,VALID,23.1899,VALID,318,VALID,0,
2016-07-29, 16:45:04,VALID,918.718,VALID,0,VALID,82.7064,VALID,315.34,VALID,22.9753,VALID,261,VALID,0,
2016-07-29, 16:46:04,VALID,918.724,VALID,0,VALID,88.7823,VALID,324.15,VALID,22.8387,VALID,261,VALID,0,
2016-07-29, 16:47:04,VALID,918.713,VALID,0,VALID,97.4349,VALID,339.514,VALID,22.7801,VALID,261,VALID,0,
2016-07-29, 16:48:04,VALID,918.699,VALID,0,VALID,104,VALID,361.325,VALID,22.9167,VALID,261,VALID,0,
2016-07-29, 16:49:04,VALID,918.677,VALID,0,VALID,93.7833,VALID,382.705,VALID,22.9345,VALID,261,VALID,0,
2016-07-29, 16:50:04,VALID,918.656,VALID,0,VALID,99.2569,VALID,376.259,VALID,22.9362,VALID,261,VALID,0,
2016-07-29, 16:51:04,VALID,918.626,VALID,0,VALID,85.7558,VALID,386.788,VALID,22.8387,VALID,267,VALID,0,
2016-07-29, 16:52:04,VALID,918.611,VALID,0,VALID,87.1051,VALID,374.218,VALID,22.8014,VALID,295,VALID,0,
2016-07-29, 16:53:04,VALID,918.619,VALID,0,VALID,85.0545,VALID,406.88,VALID,22.8191,VALID,313,VALID,0,
2016-07-29, 16:54:04,VALID,918.601,VALID,0,VALID,86.7697,VALID,464.683,VALID,22.8582,VALID,324,VALID,0,
2016-07-29, 16:55:04,VALID,918.609,VALID,0,VALID,82.1042,VALID,441.798,VALID,22.9362,VALID,315,VALID,0,
2016-07-29, 16:56:04,VALID,918.595,VALID,0,VALID,82.0051,VALID,414.078,VALID,22.9753,VALID,298,VALID,0,
2016-07-29, 16:57:04,VALID,918.591,VALID,0,VALID,83.7966,VALID,434.062,VALID,23.0533,VALID,299,VALID,0,
2016-07-29, 16:58:04,VALID,918.578,VALID,0,VALID,82.0889,VALID,461.03,VALID,23.2094,VALID,293,VALID,0,
2016-07-29, 16:59:04,VALID,918.628,VALID,0,VALID,80.7243,VALID,682.789,VALID,23.2893,VALID,252,VALID,0,
2016-07-29, 17:00:04,VALID,918.6,VALID,0,VALID,81.9136,VALID,659.044,VALID,23.268,VALID,270,VALID,0,
2016-07-29, 17:01:04,VALID,918.619,VALID,0,VALID,81.8069,VALID,751.229,VALID,23.3265,VALID,250,VALID,0,
2016-07-29, 17:02:04,VALID,918.632,VALID,0,VALID,81.2885,VALID,623.588,VALID,23.4827,VALID,249,VALID,0,
2016-07-29, 17:03:04,VALID,918.642,VALID,0,VALID,78.7651,VALID,678.921,VALID,23.6193,VALID,241,VALID,0,
2016-07-29, 17:04:04,VALID,918.687,VALID,0,VALID,76.8212,VALID,579.86,VALID,23.6388,VALID,249,VALID,0,
2016-07-29, 17:05:04,VALID,918.693,VALID,0,VALID,76.562,VALID,515.61,VALID,23.6761,VALID,239,VALID,0,
2016-07-29, 17:06:04,VALID,918.698,VALID,0,VALID,75.7844,VALID,510.131,VALID,23.8322,VALID,229,VALID,0,
2016-07-29, 17:07:04,VALID,918.728,VALID,0,VALID,75.3194,VALID,526.677,VALID,23.9298,VALID,232,VALID,0,
2016-07-29, 17:08:04,VALID,918.739,VALID,0,VALID,74.2063,VALID,489.932,VALID,24.086,VALID,201,VALID,0,
2016-07-29, 17:09:04,VALID,918.702,VALID,0,VALID,74.0462,VALID,704.921,VALID,24.2226,VALID,196,VALID,0,
2016-07-29, 17:10:04,VALID,918.696,VALID,0,VALID,72.8799,VALID,542.9,VALID,24.3611,VALID,172,VALID,0,
2016-07-29, 17:11:04,VALID,918.671,VALID,0,VALID,71.3857,VALID,714.806,VALID,24.4197,VALID,178,VALID,0,
2016-07-29, 17:12:04,VALID,918.637,VALID,0,VALID,71.1265,VALID,549.239,VALID,24.4764,VALID,191,VALID,0,
2016-07-29, 17:13:04,VALID,918.583,VALID,0,VALID,73.9776,VALID,572.554,VALID,24.6345,VALID,348,VALID,0,
2016-07-29, 17:14:04,VALID,918.547,VALID,0,VALID,70.7453,VALID,674.086,VALID,24.7888,VALID,43,VALID,0,
2016-07-29, 17:15:04,VALID,918.53,VALID,0,VALID,68.8471,VALID,761.113,VALID,25.0817,VALID,24,VALID,0,
2016-07-29, 17:16:04,VALID,918.523,VALID,0,VALID,67.4367,VALID,590.174,VALID,25.3746,VALID,39,VALID,0,
2016-07-29, 17:17:04,VALID,918.498,VALID,0,VALID,63.6631,VALID,531.726,VALID,25.4527,VALID,29,VALID,0,
2016-07-29, 17:18:04,VALID,918.517,VALID,0,VALID,67.4444,VALID,525.065,VALID,25.3941,VALID,69,VALID,0,
2016-07-29, 17:19:04,VALID,918.513,VALID,0,VALID,67.7569,VALID,452.65,VALID,25.4136,VALID,19,VALID,0.207813,
2016-07-29, 17:20:04,VALID,918.526,VALID,0,VALID,66.5982,VALID,476.824,VALID,25.3726,VALID,301,VALID,0.00585938,
2016-07-29, 17:21:04,VALID,918.547,VALID,0,VALID,68.1838,VALID,526.999,VALID,25.1969,VALID,261,VALID,0,
2016-07-29, 17:22:04,VALID,918.538,VALID,0,VALID,69.8305,VALID,539.784,VALID,25.0017,VALID,261,VALID,0,
2016-07-29, 17:23:04,VALID,918.542,VALID,0,VALID,70.2498,VALID,511.527,VALID,25.0602,VALID,261,VALID,0,
2016-07-29, 17:24:04,VALID,918.514,VALID,0,VALID,70.0973,VALID,554.396,VALID,25.236,VALID,274,VALID,0,
2016-07-29, 17:25:04,VALID,918.501,VALID,0,VALID,69.4874,VALID,616.82,VALID,25.4703,VALID,12,VALID,0,
2016-07-29, 17:26:04,VALID,918.504,VALID,0,VALID,69.5713,VALID,587.811,VALID,25.5289,VALID,281,VALID,0,
2016-07-29, 17:27:04,VALID,918.457,VALID,0,VALID,70.0592,VALID,592.216,VALID,25.4117,VALID,274,VALID,0,
2016-07-29, 17:28:04,VALID,918.455,VALID,0,VALID,70.0897,VALID,563.959,VALID,25.1755,VALID,263,VALID,0.0417969,
2016-07-29, 17:29:04,VALID,918.42,VALID,0,VALID,71.744,VALID,571.694,VALID,24.9802,VALID,283,VALID,0,
2016-07-29, 17:30:04,VALID,918.409,VALID,0,VALID,72.0108,VALID,544.834,VALID,25.0583,VALID,280,VALID,0,
2016-07-29, 17:31:04,VALID,918.411,VALID,0,VALID,73.5507,VALID,600.811,VALID,24.9021,VALID,263,VALID,0,
2016-07-29, 17:32:04,VALID,918.379,VALID,0,VALID,73.383,VALID,553.752,VALID,24.7265,VALID,259,VALID,0,
2016-07-29, 17:33:04,VALID,918.348,VALID,0,VALID,74.801,VALID,583.835,VALID,24.6093,VALID,250,VALID,0.00585938,
2016-07-29, 17:34:04,VALID,918.337,VALID,0,VALID,74.5265,VALID,531.834,VALID,24.5312,VALID,250,VALID,0,
2016-07-29, 17:35:04,VALID,918.336,VALID,0,VALID,75.0983,VALID,507.552,VALID,24.6093,VALID,280,VALID,0,
2016-07-29, 17:36:04,VALID,918.358,VALID,0,VALID,76.6763,VALID,482.088,VALID,24.6484,VALID,258,VALID,0,
2016-07-29, 17:37:04,VALID,918.329,VALID,0,VALID,74.7705,VALID,485.634,VALID,24.6093,VALID,256,VALID,0,
2016-07-29, 17:38:04,VALID,918.283,VALID,0,VALID,74.2978,VALID,499.709,VALID,24.5136,VALID,285,VALID,0,
2016-07-29, 17:39:04,VALID,918.276,VALID,0,VALID,73.2534,VALID,517.437,VALID,24.4941,VALID,272,VALID,0,
2016-07-29, 17:40:04,VALID,918.236,VALID,0,VALID,75.2431,VALID,491.758,VALID,24.4745,VALID,249,VALID,0,
2016-07-29, 17:41:04,VALID,918.228,VALID,0,VALID,76.3866,VALID,518.081,VALID,24.5117,VALID,260,VALID,0,
2016-07-29, 17:42:04,VALID,918.194,VALID,0,VALID,74.4198,VALID,497.667,VALID,24.6307,VALID,334,VALID,0,
2016-07-29, 17:43:04,VALID,918.223,VALID,0,VALID,74.8315,VALID,495.841,VALID,24.7655,VALID,285,VALID,0,
2016-07-29, 17:44:04,VALID,918.21,VALID,0,VALID,72.9256,VALID,523.238,VALID,24.7479,VALID,255,VALID,0,
2016-07-29, 17:45:04,VALID,918.211,VALID,0,VALID,73.4592,VALID,524.098,VALID,24.7674,VALID,255,VALID,0,
2016-07-29, 17:46:04,VALID,918.219,VALID,0,VALID,76.0359,VALID,518.726,VALID,24.9217,VALID,276,VALID,0,
2016-07-29, 17:47:04,VALID,918.241,VALID,0,VALID,74.4732,VALID,526.999,VALID,25.1774,VALID,298,VALID,0,
2016-07-29, 17:48:04,VALID,918.222,VALID,0,VALID,75.6929,VALID,537.958,VALID,25.3531,VALID,8,VALID,0,
2016-07-29, 17:49:04,VALID,918.224,VALID,0,VALID,72.8951,VALID,521.734,VALID,25.3707,VALID,332,VALID,0,
2016-07-29, 17:50:04,VALID,918.251,VALID,0,VALID,74.4274,VALID,524.743,VALID,25.5093,VALID,339,VALID,0,
2016-07-29, 17:51:04,VALID,918.252,VALID,0,VALID,74.2216,VALID,564.066,VALID,25.646,VALID,324,VALID,0,
2016-07-29, 17:52:04,VALID,918.214,VALID,0,VALID,70.3641,VALID,525.71,VALID,25.7437,VALID,307,VALID,0,
2016-07-29, 17:53:04,VALID,918.229,VALID,0,VALID,71.1722,VALID,530.007,VALID,25.5269,VALID,353,VALID,0,
2016-07-29, 17:54:04,VALID,918.217,VALID,0,VALID,76.3866,VALID,519.693,VALID,25.4488,VALID,16,VALID,0,
2016-07-29, 17:55:04,VALID,918.211,VALID,0,VALID,71.3628,VALID,519.585,VALID,25.5289,VALID,337,VALID,0.025,
2016-07-29, 17:56:04,VALID,918.191,VALID,0,VALID,76.0055,VALID,518.511,VALID,25.5269,VALID,25,VALID,0,
2016-07-29, 17:57:04,VALID,918.192,VALID,0,VALID,73.1924,VALID,527.536,VALID,25.5074,VALID,334,VALID,0,
2016-07-29, 17:58:04,VALID,918.193,VALID,0,VALID,73.4364,VALID,538.388,VALID,25.4703,VALID,300,VALID,0,
2016-07-29, 17:59:04,VALID,918.166,VALID,0,VALID,73.5355,VALID,532.478,VALID,25.5074,VALID,6,VALID,0,
2016-07-29, 18:00:04,VALID,918.114,VALID,0,VALID,71.8354,VALID,538.065,VALID,25.6245,VALID,357,VALID,0,
2016-07-29, 18:01:04,VALID,918.142,VALID,0,VALID,73.0857,VALID,564.818,VALID,25.566,VALID,340,VALID,0,
2016-07-29, 18:02:04,VALID,918.158,VALID,0,VALID,72.6816,VALID,561.702,VALID,25.5855,VALID,349,VALID,0,
2016-07-29, 18:03:04,VALID,918.173,VALID,0,VALID,72.9332,VALID,566.107,VALID,25.5855,VALID,20,VALID,0,
2016-07-29, 18:04:04,VALID,918.17,VALID,0,VALID,73.3754,VALID,617.464,VALID,25.7612,VALID,24,VALID,0,
2016-07-29, 18:05:04,VALID,918.2,VALID,0,VALID,70.0897,VALID,557.727,VALID,25.978,VALID,294,VALID,0,
2016-07-29, 18:06:04,VALID,918.191,VALID,0,VALID,72.1251,VALID,544.834,VALID,26.0932,VALID,353,VALID,0,
2016-07-29, 18:07:04,VALID,918.187,VALID,0,VALID,68.8471,VALID,553.107,VALID,26.1538,VALID,32,VALID,0,
2016-07-29, 18:08:04,VALID,918.164,VALID,0,VALID,69.5789,VALID,545.801,VALID,26.2299,VALID,34,VALID,0,
2016-07-29, 18:09:04,VALID,918.155,VALID,0,VALID,71.5839,VALID,529.363,VALID,26.4057,VALID,340,VALID,0,
2016-07-29, 18:10:04,VALID,918.159,VALID,0,VALID,67.574,VALID,510.238,VALID,26.5424,VALID,327,VALID,0,
2016-07-29, 18:11:04,VALID,918.144,VALID,0,VALID,69.1825,VALID,502.073,VALID,26.6596,VALID,347,VALID,0,
2016-07-29, 18:12:04,VALID,918.138,VALID,0,VALID,66.1103,VALID,515.073,VALID,26.7963,VALID,340,VALID,0,
2016-07-29, 18:13:04,VALID,918.127,VALID,0,VALID,67.1852,VALID,535.164,VALID,26.5424,VALID,31,VALID,0,
2016-07-29, 18:14:04,VALID,918.126,VALID,0,VALID,69.0681,VALID,539.784,VALID,26.5229,VALID,31,VALID,0,
2016-07-29, 18:15:04,VALID,918.144,VALID,0,VALID,70.2574,VALID,571.05,VALID,26.6401,VALID,345,VALID,0,
2016-07-29, 18:16:04,VALID,918.133,VALID,0,VALID,66.6973,VALID,566.107,VALID,26.7377,VALID,325,VALID,0,
2016-07-29, 18:17:04,VALID,918.13,VALID,0,VALID,65.9044,VALID,602.1,VALID,26.7573,VALID,326,VALID,0,
2016-07-29, 18:18:04,VALID,918.12,VALID,0,VALID,64.6847,VALID,661.838,VALID,26.7162,VALID,11,VALID,0,
2016-07-29, 18:19:04,VALID,918.175,VALID,0,VALID,65.4623,VALID,755.634,VALID,26.7182,VALID,337,VALID,0,
2016-07-29, 18:20:05,VALID,918.142,VALID,0,VALID,66.865,VALID,723.079,VALID,26.6791,VALID,338,VALID,0,
2016-07-29, 18:21:05,VALID,918.167,VALID,0,VALID,67.9628,VALID,555.578,VALID,26.6987,VALID,272,VALID,0,
2016-07-29, 18:22:05,VALID,918.193,VALID,0,VALID,65.0277,VALID,489.394,VALID,26.7768,VALID,294,VALID,0,
2016-07-29, 18:23:05,VALID,918.181,VALID,0,VALID,64.7076,VALID,566.537,VALID,26.6596,VALID,287,VALID,0,
2016-07-29, 18:24:05,VALID,918.156,VALID,0,VALID,65.4851,VALID,625.737,VALID,26.7357,VALID,15,VALID,0,
2016-07-29, 18:25:05,VALID,918.159,VALID,0,VALID,65.7443,VALID,659.474,VALID,26.8529,VALID,15,VALID,0,
2016-07-29, 18:26:05,VALID,918.095,VALID,0,VALID,66.4228,VALID,593.612,VALID,26.9526,VALID,342,VALID,0,
2016-07-29, 18:27:05,VALID,918.084,VALID,0,VALID,66.4533,VALID,567.826,VALID,27.0873,VALID,46,VALID,0,
2016-07-29, 18:28:05,VALID,918.091,VALID,0,VALID,67.0708,VALID,585.339,VALID,27.2435,VALID,53,VALID,0,
2016-07-29, 18:29:05,VALID,918.102,VALID,0,VALID,64.395,VALID,684.615,VALID,27.1675,VALID,136,VALID,0,
2016-07-29, 18:30:05,VALID,918.098,VALID,0,VALID,65.569,VALID,602.745,VALID,27.1459,VALID,129,VALID,0,
2016-07-29, 18:31:05,VALID,918.1,VALID,0,VALID,66.7506,VALID,616.927,VALID,27.0677,VALID,99,VALID,0,
2016-07-29, 18:32:05,VALID,918.123,VALID,0,VALID,65.5614,VALID,489.287,VALID,27.0482,VALID,200,VALID,0,
2016-07-29, 18:33:05,VALID,918.12,VALID,0,VALID,64.4407,VALID,561.273,VALID,26.8549,VALID,275,VALID,0.0125,
2016-07-29, 18:34:05,VALID,918.118,VALID,0,VALID,67.513,VALID,524.743,VALID,26.5013,VALID,332,VALID,0,
2016-07-29, 18:35:05,VALID,918.142,VALID,0,VALID,68.3973,VALID,522.594,VALID,26.5404,VALID,308,VALID,0,
2016-07-29, 18:36:05,VALID,918.118,VALID,0,VALID,67.0098,VALID,459.418,VALID,26.2474,VALID,319,VALID,0,
2016-07-29, 18:37:05,VALID,918.11,VALID,0,VALID,66.987,VALID,475.964,VALID,26.0326,VALID,28,VALID,0.649219,
2016-07-29, 18:38:05,VALID,918.102,VALID,0,VALID,69.2664,VALID,489.287,VALID,25.8764,VALID,40,VALID,0,
2016-07-29, 18:39:05,VALID,918.084,VALID,0,VALID,71.3094,VALID,508.197,VALID,25.9155,VALID,11,VALID,0,
2016-07-29, 18:40:05,VALID,918.097,VALID,0,VALID,68.1991,VALID,431.269,VALID,25.9741,VALID,20,VALID,0,
2016-07-29, 18:41:05,VALID,918.087,VALID,0,VALID,71.1493,VALID,414.938,VALID,26.0326,VALID,19,VALID,0,
2016-07-29, 18:42:05,VALID,918.098,VALID,0,VALID,72.4911,VALID,659.581,VALID,26.0912,VALID,14,VALID,0,
2016-07-29, 18:43:05,VALID,918.039,VALID,0,VALID,68.8852,VALID,456.625,VALID,26.1303,VALID,26,VALID,0,
2016-07-29, 18:44:05,VALID,918.048,VALID,0,VALID,69.4874,VALID,477.576,VALID,26.2084,VALID,341,VALID,0,
2016-07-29, 18:45:05,VALID,918.032,VALID,0,VALID,67.6883,VALID,537.85,VALID,26.2084,VALID,21,VALID,0,
2016-07-29, 18:46:05,VALID,918.01,VALID,0,VALID,70.4861,VALID,597.803,VALID,26.1693,VALID,358,VALID,0,
2016-07-29, 18:47:05,VALID,917.942,VALID,0,VALID,65.7291,VALID,626.704,VALID,26.1498,VALID,22,VALID,0.294531,
2016-07-29, 18:48:05,VALID,917.952,VALID,0,VALID,70.1888,VALID,509.916,VALID,26.1303,VALID,355,VALID,0,
2016-07-29, 18:49:05,VALID,917.929,VALID,0,VALID,68.7327,VALID,484.667,VALID,26.2279,VALID,9,VALID,0,
2016-07-29, 18:50:05,VALID,917.947,VALID,0,VALID,67.3071,VALID,534.842,VALID,26.306,VALID,27,VALID,0,
2016-07-29, 18:51:05,VALID,917.945,VALID,0,VALID,65.6452,VALID,743.815,VALID,26.3841,VALID,19,VALID,0,
2016-07-29, 18:52:05,VALID,917.926,VALID,0,VALID,66.9107,VALID,834.603,VALID,26.4232,VALID,360,VALID,0,
2016-07-29, 18:53:05,VALID,917.897,VALID,0,VALID,66.7278,VALID,866.405,VALID,26.4818,VALID,2,VALID,0,
2016-07-29, 18:54:05,VALID,917.838,VALID,0,VALID,66.682,VALID,849.859,VALID,26.7357,VALID,10,VALID,1.18555,
2016-07-29, 18:55:05,VALID,917.843,VALID,0,VALID,64.9515,VALID,633.688,VALID,26.8138,VALID,221,VALID,0,
2016-07-29, 18:56:05,VALID,917.811,VALID,0,VALID,66.6668,VALID,777.122,VALID,26.8529,VALID,25,VALID,0,
2016-07-29, 18:57:05,VALID,917.8,VALID,0,VALID,66.7049,VALID,686.442,VALID,26.9701,VALID,10,VALID,0.303516,
2016-07-29, 18:58:05,VALID,917.75,VALID,0,VALID,63.8766,VALID,688.913,VALID,26.929,VALID,341,VALID,0.489453,
2016-07-29, 18:59:05,VALID,917.742,VALID,0,VALID,65.0277,VALID,583.943,VALID,26.7552,VALID,353,VALID,0.211328,
2016-07-29, 19:00:05,VALID,917.682,VALID,0,VALID,66.4914,VALID,566,VALID,26.3862,VALID,360,VALID,1.75664,
2016-07-29, 19:01:05,VALID,917.654,VALID,0,VALID,68.565,VALID,732.319,VALID,25.935,VALID,10,VALID,0.830859,
2016-07-29, 19:02:05,VALID,917.621,VALID,0,VALID,69.4798,VALID,543.33,VALID,25.7007,VALID,9,VALID,1.03984,
2016-07-29, 19:03:05,VALID,917.628,VALID,0,VALID,69.03,VALID,786.792,VALID,25.7007,VALID,18,VALID,2.11133,
2016-07-29, 19:04:05,VALID,917.581,VALID,0,VALID,70.5928,VALID,868.662,VALID,25.7026,VALID,44,VALID,0.957031,
2016-07-29, 19:05:05,VALID,917.614,VALID,0,VALID,72.2014,VALID,1080.21,VALID,25.8589,VALID,15,VALID,0,
2016-07-29, 19:06:05,VALID,917.621,VALID,0,VALID,69.8152,VALID,564.281,VALID,26.1693,VALID,341,VALID,0,
2016-07-29, 19:07:05,VALID,917.63,VALID,0,VALID,67.5435,VALID,376.796,VALID,26.3276,VALID,262,VALID,0,
2016-07-29, 19:08:05,VALID,917.638,VALID,0,VALID,67.8713,VALID,387.325,VALID,26.3471,VALID,265,VALID,0,
2016-07-29, 19:09:05,VALID,917.614,VALID,0,VALID,68.5574,VALID,515.718,VALID,25.9956,VALID,265,VALID,0.196094,
2016-07-29, 19:10:05,VALID,917.573,VALID,0,VALID,70.6386,VALID,792.271,VALID,25.6831,VALID,280,VALID,0.05625,
2016-07-29, 19:11:05,VALID,917.556,VALID,0,VALID,71.3094,VALID,424.393,VALID,25.7222,VALID,327,VALID,0,
2016-07-29, 19:12:05,VALID,917.521,VALID,0,VALID,70.3641,VALID,351.225,VALID,25.7417,VALID,301,VALID,0,
2016-07-29, 19:13:05,VALID,917.484,VALID,0,VALID,69.8076,VALID,313.836,VALID,25.8393,VALID,331,VALID,0,
2016-07-29, 19:14:05,VALID,917.482,VALID,0,VALID,72.3386,VALID,357.457,VALID,25.8003,VALID,338,VALID,0,
2016-07-29, 19:15:05,VALID,917.42,VALID,0,VALID,70.8901,VALID,712.979,VALID,25.8784,VALID,271,VALID,0,
2016-07-29, 19:16:05,VALID,917.383,VALID,0,VALID,72.674,VALID,1026.17,VALID,25.9565,VALID,1,VALID,0,
2016-07-29, 19:17:05,VALID,917.384,VALID,0,VALID,73.5431,VALID,372.928,VALID,26.1518,VALID,348,VALID,0.00078125,
2016-07-29, 19:18:05,VALID,917.374,VALID,0,VALID,73.1543,VALID,276.876,VALID,26.2299,VALID,311,VALID,0,
2016-07-29, 19:19:05,VALID,917.338,VALID,0,VALID,71.3323,VALID,291.595,VALID,26.2514,VALID,43,VALID,0.225781,
2016-07-29, 19:20:05,VALID,917.336,VALID,0,VALID,72.6054,VALID,300.191,VALID,26.2104,VALID,12,VALID,0,
2016-07-29, 19:21:05,VALID,917.314,VALID,0,VALID,72.6893,VALID,868.984,VALID,26.2104,VALID,24,VALID,0,
2016-07-29, 19:22:05,VALID,917.284,VALID,0,VALID,73.0095,VALID,715.988,VALID,26.2299,VALID,65,VALID,0,
2016-07-29, 19:23:05,VALID,917.31,VALID,0,VALID,75.1898,VALID,301.695,VALID,26.2494,VALID,24,VALID,1.03711,
2016-07-29, 19:24:05,VALID,917.264,VALID,0,VALID,72.0032,VALID,230.139,VALID,26.269,VALID,340,VALID,0.00273437,
2016-07-29, 19:25:05,VALID,917.267,VALID,0,VALID,72.1709,VALID,225.519,VALID,26.1908,VALID,19,VALID,0.0316406,
2016-07-29, 19:26:05,VALID,917.288,VALID,0,VALID,73.0628,VALID,246.148,VALID,25.978,VALID,17,VALID,1.21992,
2016-07-29, 19:27:05,VALID,917.271,VALID,0,VALID,73.3754,VALID,279.025,VALID,25.9194,VALID,32,VALID,0,
2016-07-29, 19:28:05,VALID,917.289,VALID,0,VALID,72.1099,VALID,368.845,VALID,25.9545,VALID,28,VALID,0,
2016-07-29, 19:29:05,VALID,917.235,VALID,0,VALID,71.6525,VALID,1020.26,VALID,25.9155,VALID,360,VALID,0.581641,
2016-07-29, 19:30:05,VALID,917.224,VALID,0,VALID,71.4085,VALID,995.013,VALID,25.8979,VALID,349,VALID,0,
2016-07-29, 19:31:05,VALID,917.219,VALID,0,VALID,71.4467,VALID,958.375,VALID,26.0131,VALID,350,VALID,0,
2016-07-29, 19:32:05,VALID,917.192,VALID,0,VALID,70.5852,VALID,930.44,VALID,26.3471,VALID,9,VALID,0,
2016-07-29, 19:33:05,VALID,917.194,VALID,0,VALID,70.913,VALID,548.38,VALID,26.6205,VALID,357,VALID,0.0121094,
2016-07-29, 19:34:05,VALID,917.197,VALID,0,VALID,71.1036,VALID,478.65,VALID,26.5619,VALID,330,VALID,0,
2016-07-29, 19:35:05,VALID,917.163,VALID,0,VALID,69.1749,VALID,350.688,VALID,26.5229,VALID,335,VALID,0.202344,
2016-07-29, 19:36:05,VALID,917.152,VALID,0,VALID,71.6449,VALID,258.289,VALID,26.5033,VALID,19,VALID,0,
2016-07-29, 19:37:05,VALID,917.143,VALID,0,VALID,68.6412,VALID,252.379,VALID,26.3471,VALID,343,VALID,0,
2016-07-29, 19:38:05,VALID,917.148,VALID,0,VALID,68.6717,VALID,246.685,VALID,26.1518,VALID,8,VALID,0.334375,
2016-07-29, 19:39:05,VALID,917.101,VALID,0,VALID,69.2969,VALID,243.999,VALID,26.0151,VALID,16,VALID,0.910156,
2016-07-29, 19:40:05,VALID,917.071,VALID,0,VALID,71.2256,VALID,241.098,VALID,25.8393,VALID,16,VALID,1.67617,
2016-07-29, 19:41:05,VALID,917.031,VALID,0,VALID,72.2319,VALID,245.288,VALID,25.8393,VALID,9,VALID,0.356641,
2016-07-29, 19:42:05,VALID,917.053,VALID,0,VALID,71.8126,VALID,275.372,VALID,25.8003,VALID,40,VALID,0,
2016-07-29, 19:43:05,VALID,917.058,VALID,0,VALID,74.5875,VALID,350.258,VALID,25.8999,VALID,360,VALID,0,
2016-07-29, 19:44:05,VALID,917.059,VALID,0,VALID,70.7834,VALID,591.249,VALID,25.8393,VALID,358,VALID,0,
2016-07-29, 19:45:05,VALID,917.087,VALID,0,VALID,69.7695,VALID,982.979,VALID,25.8198,VALID,328,VALID,0.00234375,
2016-07-29, 19:46:05,VALID,917.023,VALID,0,VALID,72.0184,VALID,1023.16,VALID,25.937,VALID,33,VALID,1.00078,
2016-07-29, 19:47:05,VALID,917.048,VALID,0,VALID,70.5852,VALID,1014.14,VALID,26.1323,VALID,89,VALID,0,
2016-07-29, 19:48:05,VALID,917.019,VALID,0,VALID,69.6475,VALID,1004.36,VALID,26.308,VALID,303,VALID,0.260547,
2016-07-29, 19:49:05,VALID,916.956,VALID,0,VALID,71.2789,VALID,1003.5,VALID,26.5054,VALID,19,VALID,1.30469,
2016-07-29, 19:50:05,VALID,916.968,VALID,0,VALID,66.9031,VALID,1019.51,VALID,26.8745,VALID,317,VALID,0,
2016-07-29, 19:51:05,VALID,916.894,VALID,0,VALID,67.4672,VALID,388.615,VALID,27.2065,VALID,30,VALID,0.0988281,
2016-07-29, 19:52:05,VALID,916.923,VALID,0,VALID,67.8179,VALID,252.916,VALID,27.4214,VALID,351,VALID,0.0195313,
2016-07-29, 19:53:05,VALID,916.884,VALID,0,VALID,64.0062,VALID,291.38,VALID,27.2651,VALID,265,VALID,0.0765625,
2016-07-29, 19:54:05,VALID,916.835,VALID,0,VALID,66.5524,VALID,405.59,VALID,26.8159,VALID,313,VALID,0.00507812,
2016-07-29, 19:55:05,VALID,916.826,VALID,0,VALID,67.0632,VALID,380.771,VALID,26.6987,VALID,317,VALID,0,
2016-07-29, 19:56:05,VALID,916.789,VALID,0,VALID,68.1762,VALID,490.039,VALID,26.6987,VALID,317,VALID,0,
2016-07-29, 19:57:05,VALID,916.788,VALID,0,VALID,68.3134,VALID,796.031,VALID,26.7377,VALID,337,VALID,0.0121094,
2016-07-29, 19:58:05,VALID,916.808,VALID,0,VALID,69.4036,VALID,1002,VALID,26.9505,VALID,27,VALID,0.000390625,
2016-07-29, 19:59:05,VALID,916.785,VALID,0,VALID,66.7125,VALID,279.132,VALID,27.2456,VALID,17,VALID,0.189453,
2016-07-29, 20:00:05,VALID,916.787,VALID,0,VALID,67.6883,VALID,270.967,VALID,27.224,VALID,17,VALID,0.612891,
2016-07-29, 20:01:05,VALID,916.835,VALID,0,VALID,68.9843,VALID,299.653,VALID,27.187,VALID,290,VALID,0,
2016-07-29, 20:02:05,VALID,916.821,VALID,0,VALID,68.4049,VALID,300.62,VALID,27.2261,VALID,344,VALID,0,
2016-07-29, 20:03:05,VALID,916.807,VALID,0,VALID,66.8421,VALID,469.733,VALID,27.187,VALID,27,VALID,1.41367,
2016-07-29, 20:04:05,VALID,916.811,VALID,0,VALID,68.4964,VALID,356.382,VALID,27.0503,VALID,11,VALID,0.118359,
2016-07-29, 20:05:05,VALID,916.784,VALID,0,VALID,69.9143,VALID,290.628,VALID,26.894,VALID,297,VALID,0.0628906,
2016-07-29, 20:06:05,VALID,916.705,VALID,0,VALID,67.391,VALID,312.654,VALID,26.7162,VALID,20,VALID,0.448047,
2016-07-29, 20:07:05,VALID,916.694,VALID,0,VALID,69.3426,VALID,292.455,VALID,26.6596,VALID,33,VALID,0.614062,
2016-07-29, 20:08:05,VALID,916.654,VALID,0,VALID,69.4722,VALID,636.804,VALID,26.5229,VALID,11,VALID,1.45938,
2016-07-29, 20:09:05,VALID,916.605,VALID,0,VALID,70.1431,VALID,534.09,VALID,26.4057,VALID,12,VALID,1.49414,
2016-07-29, 20:10:05,VALID,916.568,VALID,0,VALID,71.0197,VALID,882.951,VALID,26.601,VALID,25,VALID,0.450391,
2016-07-29, 20:11:05,VALID,916.521,VALID,0,VALID,68.6107,VALID,993.508,VALID,26.9917,VALID,308,VALID,0.00703125,
2016-07-29, 20:12:05,VALID,916.541,VALID,0,VALID,67.1394,VALID,848.355,VALID,27.2086,VALID,26,VALID,1.23594,
2016-07-29, 20:13:05,VALID,916.538,VALID,0,VALID,67.269,VALID,1003.72,VALID,27.4605,VALID,30,VALID,0.09375,
2016-07-29, 20:14:05,VALID,916.511,VALID,0,VALID,64.86,VALID,589.959,VALID,27.7536,VALID,15,VALID,0.000390625,
2016-07-29, 20:15:05,VALID,916.488,VALID,0,VALID,65.2259,VALID,951.284,VALID,27.9881,VALID,17,VALID,0,
2016-07-29, 20:16:05,VALID,916.501,VALID,0,VALID,61.6506,VALID,901.539,VALID,28.2616,VALID,360,VALID,1.63594,
2016-07-29, 20:17:05,VALID,916.523,VALID,0,VALID,64.0977,VALID,407.847,VALID,28.2421,VALID,309,VALID,0.00195313,
2016-07-29, 20:18:05,VALID,916.446,VALID,0,VALID,64.3645,VALID,958.16,VALID,28.3007,VALID,26,VALID,0.09375,
2016-07-29, 20:19:05,VALID,916.509,VALID,0,VALID,62.512,VALID,268.066,VALID,28.2421,VALID,13,VALID,0.866406,
2016-07-29, 20:20:05,VALID,916.539,VALID,0,VALID,61.0331,VALID,253.346,VALID,28.0467,INVALID,360,VALID,0.04375,